Temperature
19 20 20 21 21 21 20 19 19 20 20 20 20 20 21 21 22 22 21 21 20 20 20 20 19 19 19 19 18 18 18 18 18 17 17 17 16 16 16 16 16 16 16 15
18 20 20 21 21 21 21 21 20 20 20 20 20 21 21 21 21 21 21 21 21 20 20 20 20 19 19 19 19 18 18 18 18 17 17 17 17 16 16 16 16 16 16 16
17 18 19 19 20 21 20 20 20 19 19 19 19 20 20 21 22 22 21 21 21 21 21 21 20 20 20 20 19 19 18 18 18 18 17 17 17 16 16 16 16 16 16 16
16 17 18 19 20 21 20 20 19 19 19 19 19 20 21 22 22 22 22 22 22 22 22 22 21 21 20 20 19 19 19 18 18 18 17 17 17 17 17 16 16 16 16 16
15 16 18 19 19 19 18 18 18 18 18 18 19 20 20 21 22 22 23 23 23 23 22 22 22 21 20 20 19 19 19 19 18 18 18 17 17 17 17 17 16 16 16 16
15 17 17 18 18 19 19 17 17 17 17 18 18 18 18 20 21 22 22 23 23 23 22 22 22 21 20 20 20 19 19 19 19 18 18 18 18 17 17 17 17 16 16 16
15 16 17 17 17 18 18 17 16 16 16 17 17 17 19 19 20 21 22 22 22 22 22 22 22 21 20 20 20 20 19 19 19 18 18 18 17 17 17 17 16 16 16 15
14 15 16 16 16 16 16 15 15 16 17 17 17 18 18 19 19 20 21 22 21 21 21 21 21 21 20 20 20 20 19 19 18 18 18 17 17 17 16 16 16 15 15 15
14 14 15 15 15 16 16 15 16 16 17 17 17 17 18 18 18 19 19 20 20 20 20 20 20 20 20 20 19 19 19 18 18 18 17 17 17 16 16 16 15 15 15 15
14 14 14 15 15 16 16 16 16 16 16 17 17 17 17 17 17 18 18 19 19 19 19 18 19 18 19 19 19 18 18 18 17 17 17 16 16 16 16 15 15 15 15 14
13 14 14 15 15 15 16 16 16 16 16 16 16 16 16 16 16 17 17 18 18 18 18 18 18 18 18 18 18 18 17 17 17 16 16 16 16 16 15 15 15 15 14 14
14 14 14 14 15 15 15 15 15 15 15 16 16 15 15 15 16 16 16 17 16 16 16 16 17 17 17 17 17 17 16 16 16 16 15 15 15 15 14 14 14 14 14 14
15 15 15 15 15 15 15 15 15 15 15 15 15 15 15 15 15 15 15 15 15 15 15 16 16 16 15 16 16 16 16 15 15 15 15 15 14 14 14 13 13 13 13 13
15 15 14 14 14 15 15 15 14 14 14 14 14 14 14 14 14 14 14 14 15 15 14 15 15 14 14 15 15 15 15 14 14 14 14 14 13 13 13 13 13 13 12 12
15 15 14 14 14 14 14 14 14 14 14 14 14 14 13 14 13 13 13 14 14 14 14 14 14 13 14 14 14 14 14 13 13 13 13 13 13 13 12 12 12 12 12 12
14 14 14 14 14 14 14 14 14 13 13 13 13 13 13 13 13 12 13 13 13 13 12 13 13 12 13 13 13 13 13 13 13 12 12 12 12 12 12 12 11 11 11 11
14 13 13 13 13 13 13 14 13 13 13 13 12 12 12 12 12 12 12 12 12 12 12 12 12 12 12 12 12 12 12 12 12 12 12 12 11 11 11 11 11 11 10 10
14 13 13 13 13 13 13 13 13 13 12 12 12 12 12 12 12 12 12 12 12 12 11 12 12 12 12 12 12 12 11 11 11 11 11 11 11 11 10 10 10 10 10 10
13 13 13 13 13 13 12 12 12 12 12 12 12 12 12 12 11 11 11 12 11 11 11 11 11 11 11 11 11 11 11 11 11 11 10 10 10 10 10 10 10 10 9 9
12 12 12 12 12 12 12 12 12 12 12 12 12 12 11 11 11 11 11 11 11 11 11 11 11 11 11 11 10 10 10 10 10 10 10 10 9 9 9 9 9 9 9 8
12 12 12 12 12 12 12 12 12 12 12 12 11 11 11 11 11 11 11 11 10 10 10 10 10 10 10 10 10 10 10 9 9 9 9 9 9 8 8 8 8 8 8 8
11 11 12 12 12 12 12 12 12 12 11 11 11 11 11 11 11 11 10 10 10 10 10 10 10 10 9 9 9 9 9 9 9 9 8 8 8 8 8 7 7 7 7 7
11 12 12 12 12 12 11 11 11 11 11 11 11 11 11 11 11 10 10 10 10 10 10 9 9 9 9 9 9 8 8 8 8 8 8 8 7 7 7 7 7 7 6 6
11 11 11 11 11 11 11 11 11 11 11 11 11 11 11 10 10 10 10 10 10 9 9 9 9 9 8 8 8 8 8 8 7 7 7 7 7 7 6 6 6 6 6 6
11 11 11 11 11 11 11 11 11 11 11 11 10 10 10 10 10 9 9 9 9 9 9 8 8 8 8 8 7 7 7 7 7 7 6 6 6 6 6 6 5 5 5 5
11 11 11 11 11 11 11 11 10 10 10 10 10 10 9 9 9 9 9 9 8 8 8 8 8 7 7 7 7 7 6 6 6 6 6 6 5 5 5 5 5 5 4 4
10 10 10 10 10 10 10 10 10 10 10 9 9 9 9 9 8 8 8 8 8 8 7 7 7 7 6 6 6 6 6 6 5 5 5 5 5 5 4 4 4 4 4 4
Wind_Speed
4 5 3 4 5 5 5 7 8 8 8 9 9 10 11 10 10 12 14 16 18 18 17 17 16 16 16 16 15 14 13 13 13 11 10 10 10 10 10 10 11 9 9 8
3 3 5 6 7 7 7 6 6 6 8 7 6 6 8 10 12 14 16 18 19 19 19 19 19 18 17 17 16 15 15 14 13 12 11 11 11 11 10 10 9 9 9 9
4 5 4 6 7 6 4 3 4 6 6 4 3 7 10 10 12 15 16 17 19 20 21 21 20 19 19 18 16 16 16 15 14 14 13 13 13 11 11 11 9 9 9 9
2 2 5 7 3 2 2 1 1 2 4 3 5 5 5 7 10 12 14 16 17 18 19 18 18 17 17 16 16 17 16 16 15 15 14 13 12 12 12 9 9 9 9 10
3 3 7 5 3 2 1 1 2 1 2 3 3 3 3 2 3 6 10 13 14 15 16 16 17 17 16 16 16 16 17 16 16 16 15 14 14 12 10 9 9 9 8 10
3 3 5 4 5 3 2 1 3 3 2 3 2 1 3 3 1 1 3 7 10 11 11 13 15 15 16 16 16 17 17 16 14 14 14 14 14 11 8 8 9 9 8 9
3 4 4 3 7 4 2 4 4 3 1 2 1 3 3 2 3 1 1 3 7 9 10 11 13 15 15 15 16 15 13 12 11 12 12 11 10 9 8 8 8 8 8 8
2 2 4 5 4 1 3 3 2 2 1 1 1 2 3 4 6 5 3 5 6 7 7 7 9 13 13 13 13 11 11 11 10 10 10 9 8 7 7 8 8 7 7 6
4 4 4 2 2 3 2 2 1 1 2 1 2 3 4 4 5 5 4 5 6 7 8 6 7 9 11 9 8 9 11 11 10 9 8 8 9 8 7 6 6 6 6 5
1 3 4 4 4 3 2 2 1 1 1 4 5 4 5 6 6 5 6 6 7 9 9 7 6 6 6 5 7 9 9 9 8 9 7 6 6 7 7 7 7 6 5 5
2 2 3 5 4 4 2 3 4 5 6 7 7 6 7 8 7 7 8 8 8 9 9 7 6 5 4 5 8 9 8 7 7 7 7 6 5 5 6 6 7 8 6 6
3 3 2 2 3 4 5 6 6 7 8 8 7 8 9 10 9 9 9 10 10 11 10 9 9 8 6 5 7 8 7 6 5 5 5 5 5 3 1 3 5 7 7 6
3 3 3 1 3 5 7 8 9 9 10 10 10 10 12 11 10 11 11 11 11 10 10 9 10 9 7 6 7 8 7 6 5 4 4 4 4 5 3 0 1 3 5 6
3 5 5 5 5 7 9 11 12 12 12 12 11 11 12 13 12 13 12 11 11 11 11 10 11 9 7 7 8 8 7 6 5 4 4 3 3 3 3 3 2 1 2 4
5 5 5 5 8 9 9 11 13 12 12 12 12 12 12 13 13 11 10 10 12 12 11 10 10 8 6 8 9 8 7 5 5 4 4 4 3 3 3 2 2 1 0 1
5 8 9 9 10 10 11 12 12 11 11 11 11 11 11 11 11 11 10 10 11 11 9 10 9 7 6 8 8 7 6 8 7 5 4 4 3 3 2 1 1 1 1 1
7 7 7 8 9 10 10 10 10 10 10 11 10 10 10 11 11 10 9 9 9 9 8 8 6 6 7 7 7 5 5 6 8 6 4 4 3 3 2 2 1 1 1 1
8 7 7 8 9 9 9 9 10 10 9 9 9 10 10 10 9 8 7 8 9 8 7 5 5 7 7 7 6 5 5 4 4 4 3 3 3 2 2 2 1 0 1 1
9 9 9 10 9 9 8 8 8 8 8 8 9 9 8 7 7 6 7 8 7 6 5 5 8 8 7 7 7 5 5 4 4 4 3 3 3 2 2 1 1 0 0 0
9 9 10 9 9 8 7 7 7 7 6 7 8 8 7 5 5 6 7 6 3 1 2 5 5 5 5 6 6 4 4 4 4 3 3 2 2 2 2 2 1 1 1 1
8 8 9 8 8 7 6 6 6 6 5 6 6 6 5 4 4 5 5 4 3 2 4 5 4 3 4 4 6 5 4 4 3 3 3 3 2 2 2 2 2 1 1 1
7 7 7 6 6 5 3 4 5 6 6 6 5 6 5 4 4 4 3 1 0 2 3 3 2 3 5 6 4 4 4 4 3 3 3 3 2 2 2 2 2 2 2 2
4 5 5 5 4 4 4 4 4 4 4 4 4 4 4 3 2 4 2 1 0 3 3 2 2 5 6 4 3 4 4 4 3 2 2 2 2 2 2 2 2 3 3 2
4 5 4 4 4 4 4 3 3 4 4 4 4 4 5 4 2 1 2 2 3 4 2 2 4 5 5 3 3 3 3 3 3 2 2 2 2 2 2 3 3 3 3 3
5 5 5 6 5 3 3 4 5 6 6 5 5 5 4 3 2 1 1 2 3 3 2 3 5 6 4 3 3 3 3 3 3 2 3 3 3 3 3 3 3 3 3 3
5 4 4 3 3 3 4 4 4 4 4 4 4 3 3 3 3 3 2 3 5 5 4 3 4 4 3 3 3 4 3 4 4 3 3 3 3 3 3 3 4 3 4 4
6 5 4 5 5 4 5 5 4 3 3 3 2 1 2 3 3 3 4 4 4 4 3 3 3 3 3 3 3 3 3 3 4 3 3 3 3 3 4 4 3 3 4 4
Wind_Direction
244 252 252 251 247 221 205 203 202 223 225 237 224 218 211 198 192 191 187 185 183 185 186 184 184 185 185 185 184 183 181 183 187 185 180 178 178 179 178 178 183 183 184 190
317 303 303 279 263 242 229 219 217 232 248 250 240 223 217 202 191 193 194 193 190 189 187 186 187 187 187 187 185 182 185 189 187 184 182 184 187 185 183 185 185 183 189 193
283 308 332 277 249 230 229 231 187 221 244 278 262 225 217 209 199 198 199 197 192 191 191 191 191 188 189 189 184 184 188 189 188 187 189 190 190 187 190 191 189 191 196 196
227 354 258 248 263 204 196 285 232 241 280 273 248 246 242 229 207 200 196 195 194 193 192 191 189 188 188 185 185 188 191 191 191 190 193 191 189 192 195 192 193 197 200 202
170 217 266 286 339 18 167 302 352 313 318 336 329 12 346 307 216 201 194 190 192 191 189 186 187 186 182 184 187 190 193 194 193 192 192 191 194 194 192 189 194 199 201 202
175 204 238 264 309 312 117 257 336 355 313 299 41 28 275 327 3 287 166 172 177 178 179 184 186 178 179 185 187 194 195 193 190 189 191 194 196 191 187 189 197 198 205 208
186 223 252 301 317 356 149 249 304 343 319 305 180 203 253 335 31 25 104 133 149 156 170 182 178 172 178 182 191 194 189 184 184 185 188 190 192 187 182 185 188 195 206 213
146 216 258 334 349 34 243 280 289 340 357 353 70 82 50 35 37 39 64 94 118 138 149 153 159 166 174 185 189 175 167 168 172 176 181 184 181 181 177 181 188 197 208 218
190 218 261 295 264 268 243 261 284 354 312 350 56 78 77 53 48 52 70 90 103 120 121 117 136 153 167 185 168 157 160 168 169 170 175 172 174 175 170 175 184 193 199 210
233 274 292 323 325 303 262 200 155 47 44 77 72 81 81 71 71 75 78 85 92 103 109 107 113 132 157 158 150 153 161 165 161 161 160 157 165 171 173 179 184 187 195 203
234 270 326 332 336 338 13 81 79 63 63 71 73 75 80 79 74 77 79 82 90 100 103 98 96 94 97 120 132 139 147 151 151 153 155 157 162 172 176 190 189 187 194 192
221 224 185 283 346 37 66 72 71 75 71 66 78 84 82 78 77 79 80 82 84 85 85 82 80 74 65 86 120 130 133 137 144 144 144 145 145 134 157 191 192 194 197 193
179 163 146 97 61 66 78 75 77 84 86 84 79 84 85 82 77 77 77 78 81 82 81 79 75 67 58 72 98 112 120 126 127 131 136 140 146 148 146 57 114 193 201 202
76 83 70 60 67 69 83 83 80 79 79 82 81 79 81 81 77 75 75 76 79 78 75 74 72 62 53 68 84 95 102 107 113 118 125 133 143 147 152 156 157 257 239 215
51 79 100 89 78 79 82 84 82 78 79 77 77 78 78 80 78 75 73 75 76 74 70 69 68 56 52 70 78 81 86 85 89 93 99 106 111 117 127 150 167 180 218 286
73 76 82 83 83 84 85 83 84 82 82 83 81 80 80 81 78 74 70 72 76 73 68 68 65 54 57 69 73 72 74 76 82 85 85 86 89 97 104 113 125 142 183 244
93 84 87 88 89 87 84 85 89 87 82 82 83 84 83 82 78 73 69 69 75 73 69 70 64 54 57 64 71 73 69 68 72 77 78 82 84 87 91 87 86 102 257 276
96 98 100 105 102 95 87 84 90 92 92 90 87 85 84 84 85 80 74 72 70 60 50 51 57 57 52 52 62 65 67 66 68 73 74 72 75 83 88 93 108 154 277 304
84 86 91 94 97 95 92 88 88 91 94 94 90 85 84 87 89 85 76 72 68 57 28 39 54 54 47 41 54 58 60 58 55 54 59 60 58 56 65 63 27 350 326 10
81 84 91 90 90 94 96 94 89 85 85 90 90 87 82 78 82 82 75 65 51 61 48 48 50 47 38 36 50 54 52 55 55 48 47 52 48 29 27 26 15 350 340 328
81 82 86 89 86 84 88 94 96 93 90 94 99 101 96 82 80 86 84 66 3 30 63 62 60 48 39 40 46 47 48 47 43 40 39 36 29 24 22 17 8 357 347 323
77 79 80 84 87 80 72 88 101 101 96 95 98 100 99 90 86 80 81 126 248 69 80 71 61 51 43 46 46 46 46 45 42 42 44 42 43 34 12 357 348 338 328 320
76 79 79 83 92 89 74 76 91 102 103 105 110 115 117 115 116 114 97 303 86 87 89 78 55 47 48 51 51 51 45 40 35 37 38 33 31 15 352 346 344 338 334 335
72 72 70 75 78 80 79 77 86 89 87 85 91 105 112 103 67 55 157 137 107 92 87 66 55 52 57 60 55 50 40 29 25 25 22 20 18 12 8 5 359 353 349 344
80 75 68 65 67 70 73 71 73 73 74 72 70 68 74 99 112 91 72 80 86 78 64 55 55 54 55 50 43 37 32 29 29 28 26 22 16 12 10 4 360 352 348 342
67 59 58 64 74 72 68 73 76 74 81 75 56 47 52 56 66 68 66 64 68 71 69 61 59 58 53 47 42 36 33 27 30 32 27 25 14 6 0 358 352 347 341 337
54 49 48 43 44 61 76 81 83 77 87 104 95 46 51 55 56 59 66 70 71 70 71 70 68 61 54 48 44 41 36 30 28 28 28 24 13 4 1 354 345 341 340 339
Height
1458 1453 1452 1452 1451 1450 1456 1459 1465 1459 1454 1446 1441 1439 1438 1439 1442 1446 1449 1453 1456 1461 1465 1470 1474 1479 1483 1487 1492 1496 1499 1502 1505 1509 1513 1516 1518 1521 1524 1526 1528 1530 1532 1534
1458 1450 1449 1449 1445 1445 1445 1447 1449 1449 1447 1437 1434 1435 1435 1435 1437 1441 1444 1447 1451 1456 1460 1465 1469 1473 1478 1482 1487 1491 1495 1498 1502 1506 1509 1512 1515 1518 1520 1523 1525 1527 1529 1531
1464 1454 1452 1455 1444 1441 1442 1441 1443 1448 1443 1435 1435 1433 1431 1432 1433 1435 1438 1443 1446 1450 1454 1459 1463 1468 1473 1477 1483 1487 1490 1494 1498 1502 1505 1508 1512 1514 1517 1519 1522 1524 1526 1527
1465 1461 1467 1450 1434 1434 1438 1439 1438 1438 1437 1434 1432 1430 1429 1429 1430 1432 1435 1439 1442 1446 1450 1454 1459 1464 1469 1474 1479 1482 1486 1490 1493 1497 1500 1504 1507 1510 1513 1516 1518 1520 1522 1524
1467 1467 1457 1443 1437 1437 1440 1442 1438 1436 1433 1431 1429 1429 1430 1429 1429 1429 1431 1434 1438 1442 1446 1451 1455 1460 1465 1470 1474 1478 1481 1485 1488 1492 1496 1499 1502 1505 1508 1511 1513 1516 1518 1520
1462 1463 1462 1448 1437 1433 1436 1444 1438 1434 1433 1431 1430 1436 1434 1429 1429 1429 1430 1432 1435 1439 1444 1448 1451 1456 1461 1465 1469 1472 1475 1479 1483 1487 1491 1494 1497 1500 1503 1506 1509 1512 1514 1515
1459 1459 1451 1442 1436 1433 1445 1444 1437 1434 1432 1431 1430 1431 1431 1429 1428 1428 1429 1430 1433 1436 1439 1443 1447 1452 1456 1460 1463 1467 1471 1476 1480 1483 1487 1490 1494 1496 1499 1502 1505 1507 1509 1511
1458 1460 1455 1440 1437 1439 1440 1436 1435 1432 1430 1429 1427 1426 1427 1427 1426 1427 1427 1428 1430 1433 1436 1440 1444 1448 1451 1455 1458 1463 1468 1472 1476 1479 1483 1487 1490 1491 1494 1498 1500 1502 1504 1506
1453 1453 1444 1440 1439 1437 1436 1435 1433 1430 1429 1428 1427 1426 1427 1427 1426 1427 1428 1428 1429 1431 1434 1438 1442 1446 1449 1452 1457 1461 1464 1468 1472 1476 1480 1482 1485 1487 1490 1493 1495 1496 1498 1499
1447 1444 1441 1438 1437 1436 1434 1432 1430 1429 1428 1427 1426 1426 1427 1427 1427 1428 1429 1428 1430 1431 1434 1438 1441 1444 1448 1451 1455 1459 1462 1465 1469 1472 1476 1478 1481 1484 1486 1488 1490 1492 1493 1495
1446 1443 1440 1438 1436 1434 1432 1431 1429 1427 1427 1427 1427 1428 1427 1427 1428 1429 1429 1430 1431 1433 1435 1439 1442 1445 1448 1451 1454 1457 1460 1463 1466 1469 1472 1475 1477 1480 1482 1484 1486 1488 1490 1491
1445 1441 1441 1440 1437 1434 1432 1431 1430 1429 1428 1428 1429 1429 1429 1429 1430 1431 1432 1433 1434 1435 1438 1441 1443 1445 1448 1451 1453 1456 1458 1461 1464 1467 1470 1472 1475 1477 1480 1482 1483 1485 1486 1487
1439 1438 1439 1438 1437 1434 1433 1432 1431 1431 1430 1431 1432 1432 1431 1432 1433 1435 1436 1437 1438 1440 1442 1444 1446 1448 1450 1452 1453 1455 1458 1461 1463 1466 1468 1471 1473 1475 1477 1479 1481 1482 1484 1484
1439 1438 1438 1438 1437 1436 1435 1435 1434 1435 1435 1435 1435 1436 1436 1437 1438 1439 1441 1442 1443 1445 1447 1448 1449 1451 1453 1454 1455 1457 1459 1461 1463 1465 1467 1470 1472 1473 1475 1476 1477 1478 1480 1480
1440 1440 1440 1440 1439 1439 1439 1438 1439 1439 1440 1441 1441 1441 1442 1442 1443 1445 1446 1447 1448 1449 1451 1452 1452 1454 1455 1456 1457 1458 1460 1462 1463 1465 1467 1469 1470 1471 1473 1474 1474 1475 1475 1476
1442 1442 1442 1442 1442 1442 1443 1443 1443 1444 1445 1446 1446 1447 1448 1448 1449 1450 1451 1452 1452 1453 1454 1455 1456 1457 1458 1459 1460 1461 1462 1463 1464 1465 1467 1468 1469 1470 1471 1472 1472 1472 1473 1473
1444 1444 1445 1445 1446 1446 1447 1447 1447 1449 1450 1450 1451 1452 1453 1454 1454 1455 1456 1457 1457 1458 1459 1459 1460 1461 1461 1462 1462 1463 1464 1465 1465 1466 1467 1467 1468 1469 1469 1470 1469 1469 1470 1470
1446 1446 1447 1448 1449 1450 1451 1451 1452 1453 1454 1455 1456 1457 1458 1458 1459 1460 1461 1462 1462 1462 1463 1464 1464 1465 1465 1465 1465 1465 1466 1466 1466 1467 1467 1467 1467 1467 1467 1468 1468 1467 1467 1467
1448 1449 1450 1451 1452 1453 1454 1455 1456 1457 1459 1460 1460 1461 1462 1463 1464 1465 1465 1466 1466 1466 1467 1467 1467 1468 1468 1468 1467 1467 1467 1467 1467 1467 1467 1467 1467 1466 1466 1466 1465 1464 1464 1463
1452 1453 1453 1454 1456 1457 1458 1459 1460 1461 1463 1463 1464 1465 1466 1467 1468 1468 1469 1469 1469 1469 1470 1470 1470 1470 1469 1469 1469 1468 1467 1467 1466 1466 1466 1465 1465 1464 1464 1463 1462 1461 1460 1459
1455 1456 1457 1458 1459 1461 1462 1463 1464 1465 1466 1467 1467 1468 1469 1470 1471 1471 1471 1471 1472 1472 1472 1472 1471 1471 1470 1470 1469 1468 1467 1466 1466 1465 1465 1464 1463 1462 1461 1461 1460 1458 1457 1455
1459 1460 1461 1462 1463 1464 1466 1466 1467 1468 1469 1470 1470 1471 1472 1472 1473 1473 1474 1474 1474 1474 1473 1472 1472 1471 1470 1470 1469 1468 1467 1466 1465 1464 1463 1462 1461 1460 1459 1458 1456 1455 1453 1451
1464 1464 1465 1466 1467 1468 1468 1469 1470 1470 1471 1472 1472 1473 1473 1474 1475 1475 1475 1475 1474 1474 1473 1472 1472 1471 1470 1469 1468 1467 1466 1464 1463 1462 1461 1460 1459 1458 1456 1455 1453 1451 1450 1448
1467 1467 1468 1469 1469 1470 1470 1471 1472 1472 1473 1473 1474 1475 1475 1475 1475 1475 1475 1475 1474 1473 1473 1472 1471 1470 1469 1468 1467 1465 1464 1463 1462 1460 1459 1458 1456 1455 1453 1451 1450 1448 1446 1444
1469 1470 1470 1471 1471 1472 1472 1473 1473 1473 1474 1475 1475 1475 1475 1475 1475 1475 1474 1474 1473 1472 1472 1471 1470 1469 1468 1467 1465 1464 1462 1461 1459 1458 1456 1455 1453 1452 1450 1448 1446 1444 1442 1440
1471 1471 1472 1472 1473 1473 1473 1474 1474 1475 1475 1475 1476 1476 1475 1475 1475 1474 1473 1473 1472 1471 1471 1470 1469 1467 1466 1465 1463 1462 1460 1459 1457 1456 1454 1452 1451 1449 1447 1445 1443 1441 1438 1436
1473 1473 1473 1474 1474 1474 1475 1475 1475 1475 1475 1475 1475 1475 1475 1474 1474 1473 1472 1472 1471 1470 1469 1468 1467 1465 1464 1463 1461 1460 1458 1456 1455 1453 1452 1450 1448 1446 1444 1442 1439 1437 1435 1432